sat.trackr.live / text

‹ back to catalog

CLOUDCT-PRECURSOR

NORAD 69939 · 2026-156BY

PAYLOAD ACTIVE UNKNOWN

§ Identity

Operator
Country
GER
Launch date
2026-07-07
Launch site
AFWTR
Launch vehicle
Mass (kg)
RCS (m²)

External: N2YO · Heavens-Above · Gunter

§ Orbital elements

Epoch: 2026-09-19T11:43:41.161440Z

Period
96.47 min
Inclination
97.7487°
Eccentricity
0.0008161
Mean motion
14.92631292 rev/d
Perigee alt
584.0 km
Apogee alt
595.4 km
Semi-major
6,967.9 km
B*
8.4973e-5
RAAN
161.8232°
Arg perigee
278.9442°
Mean anomaly
81.0853°
Rev number
1,106

§ Raw data

CLOUDCT-PRECURSOR1 69939U 26156BY  26262.48867085  .00000819  00000+0  84973-4 0  99922 69939  97.7487 161.8232 0008161 278.9442  81.0853 14.92631292 11067

JSON: /api/v1/satellites/69939 · /tle

For live sub-satellite position, see the globe view (requires WebGL).

§ Visibility from observer

Set your observer location to see the next 7 days of passes ≥ 10°. The values pass through the URL so the page stays shareable.

No JS? Fill the form by hand. The geolocation button needs JavaScript.